,,,PA_Meas_PMT16A,,PR_Meas_QMR101_102,,RH_Meas_QMH101,,SR_Meas_QMS101,,TA_Meas_QMH101,,GenWind,,GenWind,
date,time,status,PA,status,PR,status,RH,status,SR,status,TA,status,DirAvg,status,SpdAvg,
2009-06-27, 00:00:04,VALID,1004.39,VALID,0,VALID,89.7004,VALID,0,VALID,24.9671,VALID,349,VALID,0.532031,
2009-06-27, 00:01:04,VALID,1004.39,VALID,0,VALID,89.6775,VALID,0,VALID,24.9476,VALID,345,VALID,0.431641,
2009-06-27, 00:02:04,VALID,1004.42,VALID,0,VALID,89.6699,VALID,0,VALID,24.9476,VALID,345,VALID,0.535547,
2009-06-27, 00:03:04,VALID,1004.34,VALID,0,VALID,89.6393,VALID,0,VALID,24.9476,VALID,347,VALID,0.482422,
2009-06-27, 00:04:04,VALID,1004.33,VALID,0,VALID,89.6241,VALID,0,VALID,24.9476,VALID,347,VALID,0.407031,
2009-06-27, 00:05:04,VALID,1004.36,VALID,0,VALID,89.6165,VALID,0.100563,VALID,24.9476,VALID,355,VALID,0.464844,
2009-06-27, 00:06:04,VALID,1004.35,VALID,0,VALID,89.5936,VALID,0,VALID,24.9885,VALID,355,VALID,0.282031,
2009-06-27, 00:07:04,VALID,1004.32,VALID,0,VALID,89.4791,VALID,0,VALID,24.9866,VALID,351,VALID,0.337109,
2009-06-27, 00:08:04,VALID,1004.32,VALID,0,VALID,89.4028,VALID,0,VALID,25.006,VALID,350,VALID,0.567187,
2009-06-27, 00:09:04,VALID,1004.31,VALID,0,VALID,89.2579,VALID,0,VALID,25.0663,VALID,348,VALID,0.535937,
2009-06-27, 00:10:04,VALID,1004.33,VALID,0,VALID,89.0443,VALID,0,VALID,25.0839,VALID,349,VALID,0.701953,
2009-06-27, 00:11:04,VALID,1004.35,VALID,0,VALID,88.8765,VALID,0,VALID,25.1229,VALID,353,VALID,0.522266,
2009-06-27, 00:12:04,VALID,1004.32,VALID,0,VALID,88.7086,VALID,0,VALID,25.1442,VALID,351,VALID,0.817578,
2009-06-27, 00:13:04,VALID,1004.31,VALID,0,VALID,88.6323,VALID,0,VALID,25.1851,VALID,349,VALID,0.833984,
2009-06-27, 00:14:04,VALID,1004.32,VALID,0,VALID,88.495,VALID,0,VALID,25.2046,VALID,347,VALID,0.972266,
2009-06-27, 00:15:04,VALID,1004.3,VALID,0,VALID,88.3119,VALID,0,VALID,25.224,VALID,345,VALID,0.898438,
2009-06-27, 00:16:04,VALID,1004.28,VALID,0,VALID,88.2356,VALID,0,VALID,25.2027,VALID,356,VALID,0.95,
2009-06-27, 00:17:04,VALID,1004.27,VALID,0,VALID,88.228,VALID,0,VALID,25.2027,VALID,348,VALID,0.921875,
2009-06-27, 00:18:04,VALID,1004.27,VALID,0,VALID,88.1975,VALID,0,VALID,25.1832,VALID,346,VALID,0.894141,
2009-06-27, 00:19:04,VALID,1004.27,VALID,0,VALID,88.1746,VALID,0,VALID,25.224,VALID,352,VALID,0.505469,
2009-06-27, 00:20:04,VALID,1004.27,VALID,0,VALID,88.1441,VALID,0,VALID,25.2221,VALID,354,VALID,0.845312,
2009-06-27, 00:21:04,VALID,1004.27,VALID,0,VALID,88.0754,VALID,0,VALID,25.2416,VALID,350,VALID,0.638281,
2009-06-27, 00:22:04,VALID,1004.25,VALID,0,VALID,87.9762,VALID,0,VALID,25.2825,VALID,340,VALID,0.646094,
2009-06-27, 00:23:04,VALID,1004.27,VALID,0,VALID,87.9152,VALID,0,VALID,25.2611,VALID,332,VALID,1.09766,
2009-06-27, 00:24:04,VALID,1004.25,VALID,0,VALID,87.8771,VALID,0,VALID,25.2806,VALID,349,VALID,0.778906,
2009-06-27, 00:25:04,VALID,1004.22,VALID,0,VALID,87.816,VALID,0,VALID,25.3214,VALID,336,VALID,1.04023,
2009-06-27, 00:26:04,VALID,1004.21,VALID,0,VALID,87.7703,VALID,0,VALID,25.3195,VALID,349,VALID,0.303906,
2009-06-27, 00:27:04,VALID,1004.22,VALID,0,VALID,87.7779,VALID,0,VALID,25.339,VALID,356,VALID,1.0125,
2009-06-27, 00:28:04,VALID,1004.21,VALID,0,VALID,87.7779,VALID,0,VALID,25.339,VALID,349,VALID,0.726953,
2009-06-27, 00:29:04,VALID,1004.19,VALID,0,VALID,87.816,VALID,0,VALID,25.2981,VALID,350,VALID,0.728516,
2009-06-27, 00:30:04,VALID,1004.18,VALID,0,VALID,87.8313,VALID,0,VALID,25.3,VALID,308,VALID,0.829297,
2009-06-27, 00:31:04,VALID,1004.17,VALID,0,VALID,87.8618,VALID,0,VALID,25.2786,VALID,333,VALID,0.794141,
2009-06-27, 00:32:04,VALID,1004.14,VALID,0,VALID,87.8694,VALID,0,VALID,25.2806,VALID,346,VALID,1.00234,
2009-06-27, 00:33:04,VALID,1004.12,VALID,0,VALID,87.9,VALID,0,VALID,25.2592,VALID,346,VALID,0.8875,
2009-06-27, 00:34:04,VALID,1004.13,VALID,0,VALID,88.0068,VALID,0,VALID,25.2592,VALID,351,VALID,1.10742,
2009-06-27, 00:35:04,VALID,1004.12,VALID,0,VALID,88.0678,VALID,0,VALID,25.3,VALID,338,VALID,1.10742,
2009-06-27, 00:36:04,VALID,1004.1,VALID,0,VALID,88.1059,VALID,0,VALID,25.3,VALID,357,VALID,1.01719,
2009-06-27, 00:37:04,VALID,1004.1,VALID,0,VALID,88.0907,VALID,0,VALID,25.2786,VALID,337,VALID,1.04688,
2009-06-27, 00:38:04,VALID,1004.1,VALID,0,VALID,88.0525,VALID,0,VALID,25.2981,VALID,328,VALID,0.839063,
2009-06-27, 00:39:04,VALID,1004.06,VALID,0,VALID,88.0296,VALID,0,VALID,25.3,VALID,358,VALID,0.982813,
2009-06-27, 00:40:04,VALID,1004.1,VALID,0,VALID,87.9991,VALID,0,VALID,25.3195,VALID,352,VALID,0.9875,
2009-06-27, 00:41:04,VALID,1004.07,VALID,0,VALID,88.022,VALID,0,VALID,25.2981,VALID,336,VALID,1.30586,
2009-06-27, 00:42:04,VALID,1004.07,VALID,0,VALID,87.9839,VALID,0,VALID,25.3195,VALID,342,VALID,0.669922,
2009-06-27, 00:43:04,VALID,1004.1,VALID,0,VALID,87.9457,VALID,0,VALID,25.2786,VALID,344,VALID,0.520703,
2009-06-27, 00:44:04,VALID,1004.06,VALID,0,VALID,87.961,VALID,0,VALID,25.2786,VALID,350,VALID,0.826563,
2009-06-27, 00:45:04,VALID,1004.08,VALID,0,VALID,87.8923,VALID,0,VALID,25.3,VALID,352,VALID,0.944922,
2009-06-27, 00:46:04,VALID,1004.08,VALID,0,VALID,87.9534,VALID,0,VALID,25.3,VALID,358,VALID,0.708594,
2009-06-27, 00:47:04,VALID,1004.1,VALID,0,VALID,87.9762,VALID,0,VALID,25.3,VALID,337,VALID,0.652344,
2009-06-27, 00:48:04,VALID,1004.06,VALID,0,VALID,87.9534,VALID,0,VALID,25.2611,VALID,356,VALID,1.35391,
2009-06-27, 00:49:04,VALID,1004.06,VALID,0,VALID,87.9762,VALID,0,VALID,25.3,VALID,321,VALID,0.278906,
2009-06-27, 00:50:04,VALID,1004.07,VALID,0,VALID,88.022,VALID,0,VALID,25.3,VALID,353,VALID,0.394531,
2009-06-27, 00:51:04,VALID,1004.02,VALID,0,VALID,88.0525,VALID,0,VALID,25.2825,VALID,347,VALID,0.877734,
2009-06-27, 00:52:04,VALID,1004.03,VALID,0,VALID,88.022,VALID,0,VALID,25.3,VALID,339,VALID,0.452734,
2009-06-27, 00:53:04,VALID,1004.01,VALID,0,VALID,88.0144,VALID,0,VALID,25.2611,VALID,352,VALID,0.464063,
2009-06-27, 00:54:04,VALID,1004.02,VALID,0,VALID,88.0678,VALID,0,VALID,25.2611,VALID,352,VALID,0.112891,
2009-06-27, 00:55:04,VALID,1004.02,VALID,0,VALID,88.167,VALID,0,VALID,25.2416,VALID,346,VALID,0.300781,
2009-06-27, 00:56:04,VALID,1004.02,VALID,0,VALID,88.1975,VALID,0,VALID,25.2202,VALID,3,VALID,0.968359,
2009-06-27, 00:57:04,VALID,1004.04,VALID,0,VALID,88.1975,VALID,0,VALID,25.2611,VALID,337,VALID,0.429688,
2009-06-27, 00:58:04,VALID,1004.04,VALID,0,VALID,88.2661,VALID,0,VALID,25.2202,VALID,334,VALID,0.611328,
2009-06-27, 00:59:04,VALID,1004.07,VALID,0,VALID,88.2738,VALID,0,VALID,25.2007,VALID,339,VALID,0.524219,
2009-06-27, 01:00:04,VALID,1004.07,VALID,0,VALID,88.3806,VALID,0,VALID,25.1813,VALID,341,VALID,0.375781,
2009-06-27, 01:01:04,VALID,1004.07,VALID,0,VALID,88.4264,VALID,0,VALID,25.2027,VALID,1,VALID,1.0457,
2009-06-27, 01:02:04,VALID,1004.08,VALID,0,VALID,88.434,VALID,0,VALID,25.2027,VALID,340,VALID,0.873438,
2009-06-27, 01:03:04,VALID,1004.07,VALID,0,VALID,88.4569,VALID,0,VALID,25.1813,VALID,342,VALID,0.753125,
2009-06-27, 01:04:04,VALID,1004.09,VALID,0,VALID,88.4721,VALID,0,VALID,25.2027,VALID,347,VALID,0.984766,
2009-06-27, 01:05:04,VALID,1004.08,VALID,0,VALID,88.4187,VALID,0,VALID,25.2007,VALID,353,VALID,0.787109,
2009-06-27, 01:06:04,VALID,1004.1,VALID,0,VALID,88.4111,VALID,0,VALID,25.2221,VALID,360,VALID,0.520703,
2009-06-27, 01:07:04,VALID,1004.09,VALID,0,VALID,88.434,VALID,0,VALID,25.2027,VALID,353,VALID,0.610156,
2009-06-27, 01:08:04,VALID,1004.09,VALID,0,VALID,88.495,VALID,0,VALID,25.1618,VALID,352,VALID,0.676953,
2009-06-27, 01:09:04,VALID,1004.08,VALID,0,VALID,88.5255,VALID,0,VALID,25.1832,VALID,347,VALID,0.790625,
2009-06-27, 01:10:04,VALID,1004.07,VALID,0,VALID,88.5103,VALID,0,VALID,25.1618,VALID,350,VALID,0.441016,
2009-06-27, 01:11:04,VALID,1004.08,VALID,0,VALID,88.5866,VALID,0,VALID,25.1637,VALID,350,VALID,0.464453,
2009-06-27, 01:12:04,VALID,1004.05,VALID,0,VALID,88.7239,VALID,0,VALID,25.1442,VALID,352,VALID,0.525,
2009-06-27, 01:13:04,VALID,1004.06,VALID,0,VALID,88.7925,VALID,0,VALID,25.1053,VALID,353,VALID,0.259375,
2009-06-27, 01:14:04,VALID,1004.08,VALID,0,VALID,88.8841,VALID,0,VALID,25.1053,VALID,342,VALID,0.654688,
2009-06-27, 01:15:04,VALID,1004.04,VALID,0,VALID,88.8612,VALID,0,VALID,25.0839,VALID,350,VALID,0.455859,
2009-06-27, 01:16:04,VALID,1004.09,VALID,0,VALID,88.9451,VALID,0,VALID,25.0858,VALID,341,VALID,0.477734,
2009-06-27, 01:17:04,VALID,1004.05,VALID,0,VALID,88.907,VALID,0,VALID,25.0839,VALID,348,VALID,1.00234,
2009-06-27, 01:18:04,VALID,1004.08,VALID,0,VALID,88.7925,VALID,0,VALID,25.1248,VALID,355,VALID,0.550781,
2009-06-27, 01:19:04,VALID,1004.1,VALID,0,VALID,88.7391,VALID,0,VALID,25.1229,VALID,346,VALID,0.550391,
2009-06-27, 01:20:04,VALID,1004.07,VALID,0,VALID,88.6857,VALID,0,VALID,25.1229,VALID,354,VALID,0.954687,
2009-06-27, 01:21:04,VALID,1004.09,VALID,0,VALID,88.5942,VALID,0,VALID,25.1637,VALID,345,VALID,0.707812,
2009-06-27, 01:22:04,VALID,1004.08,VALID,0,VALID,88.5484,VALID,0,VALID,25.1423,VALID,349,VALID,0.544141,
2009-06-27, 01:23:04,VALID,1004.04,VALID,0,VALID,88.5332,VALID,0,VALID,25.1442,VALID,349,VALID,0.230859,
2009-06-27, 01:24:04,VALID,1004.04,VALID,0,VALID,88.5789,VALID,0,VALID,25.1442,VALID,349,VALID,0.321484,
2009-06-27, 01:25:04,VALID,1004.06,VALID,0,VALID,88.6781,VALID,0,VALID,25.1248,VALID,349,VALID,0.394922,
2009-06-27, 01:26:04,VALID,1004.01,VALID,0,VALID,88.7773,VALID,0,VALID,25.0644,VALID,352,VALID,0.420312,
2009-06-27, 01:27:04,VALID,1004,VALID,0,VALID,88.8383,VALID,0,VALID,25.0644,VALID,349,VALID,0.332422,
2009-06-27, 01:28:04,VALID,1004,VALID,0,VALID,88.9604,VALID,0,VALID,25.045,VALID,349,VALID,0.331641,
2009-06-27, 01:29:04,VALID,1004,VALID,0,VALID,89.029,VALID,0,VALID,25.0274,VALID,349,VALID,0.291797,
2009-06-27, 01:30:04,VALID,1003.97,VALID,0,VALID,89.0748,VALID,0,VALID,25.006,VALID,349,VALID,0.389062,
2009-06-27, 01:31:04,VALID,1003.96,VALID,0,VALID,89.1892,VALID,0,VALID,24.9885,VALID,349,VALID,0.206641,
2009-06-27, 01:32:04,VALID,1003.95,VALID,0,VALID,89.296,VALID,0,VALID,24.9263,VALID,344,VALID,0.541797,
2009-06-27, 01:33:04,VALID,1003.93,VALID,0,VALID,89.4181,VALID,0,VALID,24.9476,VALID,334,VALID,0.554297,
2009-06-27, 01:34:04,VALID,1003.94,VALID,0,VALID,89.4257,VALID,0,VALID,24.9282,VALID,341,VALID,0.186719,
2009-06-27, 01:35:04,VALID,1003.87,VALID,0,VALID,89.5249,VALID,0,VALID,24.93,VALID,340,VALID,0.595703,
2009-06-27, 01:36:04,VALID,1003.92,VALID,0,VALID,89.647,VALID,0,VALID,24.93,VALID,310,VALID,0.149609,
2009-06-27, 01:37:04,VALID,1003.89,VALID,0,VALID,89.7233,VALID,0,VALID,24.8892,VALID,310,VALID,0.284766,
2009-06-27, 01:38:04,VALID,1003.91,VALID,0,VALID,89.7919,VALID,0,VALID,24.8697,VALID,310,VALID,0,
2009-06-27, 01:39:04,VALID,1003.87,VALID,0,VALID,89.8911,VALID,0,VALID,24.8716,VALID,310,VALID,0.0480469,
2009-06-27, 01:40:04,VALID,1003.83,VALID,0,VALID,90.0208,VALID,0.100563,VALID,24.8716,VALID,345,VALID,0.134375,
2009-06-27, 01:41:04,VALID,1003.85,VALID,0,VALID,90.0513,VALID,0,VALID,24.8308,VALID,348,VALID,0.348047,
2009-06-27, 01:42:04,VALID,1003.85,VALID,0,VALID,90.1123,VALID,0,VALID,24.8308,VALID,348,VALID,0.336328,
2009-06-27, 01:43:04,VALID,1003.84,VALID,0,VALID,90.1734,VALID,0,VALID,24.8113,VALID,350,VALID,0.112891,
2009-06-27, 01:44:04,VALID,1003.83,VALID,0,VALID,90.1429,VALID,0,VALID,24.8308,VALID,352,VALID,0.513672,
2009-06-27, 01:45:04,VALID,1003.83,VALID,0,VALID,90.1352,VALID,0,VALID,24.8503,VALID,360,VALID,0.791797,
2009-06-27, 01:46:04,VALID,1003.86,VALID,0,VALID,90.0589,VALID,0,VALID,24.8522,VALID,354,VALID,0.500391,
2009-06-27, 01:47:04,VALID,1003.86,VALID,0,VALID,90.036,VALID,0,VALID,24.8308,VALID,345,VALID,0.636719,
2009-06-27, 01:48:04,VALID,1003.88,VALID,0,VALID,89.9903,VALID,0,VALID,24.8327,VALID,350,VALID,0.714453,
2009-06-27, 01:49:04,VALID,1003.88,VALID,0,VALID,89.9521,VALID,0,VALID,24.8716,VALID,354,VALID,0.780859,
2009-06-27, 01:50:04,VALID,1003.88,VALID,0,VALID,89.8072,VALID,0,VALID,24.8911,VALID,350,VALID,0.734766,
2009-06-27, 01:51:04,VALID,1003.85,VALID,0,VALID,89.7614,VALID,0,VALID,24.8892,VALID,353,VALID,0.733594,
2009-06-27, 01:52:04,VALID,1003.85,VALID,0,VALID,89.6546,VALID,0,VALID,24.93,VALID,337,VALID,0.620313,
2009-06-27, 01:53:04,VALID,1003.85,VALID,0,VALID,89.5478,VALID,0,VALID,24.9087,VALID,350,VALID,0.905078,
2009-06-27, 01:54:04,VALID,1003.82,VALID,0,VALID,89.4563,VALID,0,VALID,24.9282,VALID,342,VALID,0.686328,
2009-06-27, 01:55:04,VALID,1003.79,VALID,0,VALID,89.3571,VALID,0,VALID,24.969,VALID,351,VALID,0.698438,
2009-06-27, 01:56:04,VALID,1003.8,VALID,0,VALID,89.296,VALID,0,VALID,24.9671,VALID,345,VALID,0.821875,
2009-06-27, 01:57:04,VALID,1003.76,VALID,0,VALID,89.2045,VALID,0,VALID,24.9866,VALID,316,VALID,0.693359,
2009-06-27, 01:58:04,VALID,1003.72,VALID,0,VALID,89.029,VALID,0.100563,VALID,25.0255,VALID,350,VALID,0.552734,
2009-06-27, 01:59:04,VALID,1003.7,VALID,0,VALID,88.9222,VALID,0,VALID,25.0255,VALID,15,VALID,0.334766,
2009-06-27, 02:00:04,VALID,1003.67,VALID,0,VALID,88.8383,VALID,0,VALID,25.045,VALID,2,VALID,0.447266,
2009-06-27, 02:01:04,VALID,1003.7,VALID,0,VALID,88.762,VALID,0,VALID,25.0644,VALID,339,VALID,0.643359,
2009-06-27, 02:02:04,VALID,1003.65,VALID,0,VALID,88.6857,VALID,0,VALID,25.0839,VALID,4,VALID,0.358203,
2009-06-27, 02:03:04,VALID,1003.69,VALID,0,VALID,88.6705,VALID,0,VALID,25.0644,VALID,345,VALID,0.553125,
2009-06-27, 02:04:04,VALID,1003.67,VALID,0,VALID,88.6552,VALID,0,VALID,25.0858,VALID,358,VALID,0.682031,
2009-06-27, 02:05:04,VALID,1003.65,VALID,0,VALID,88.6094,VALID,0,VALID,25.0839,VALID,336,VALID,0.885938,
2009-06-27, 02:06:04,VALID,1003.64,VALID,0,VALID,88.6476,VALID,0,VALID,25.0839,VALID,336,VALID,0.651172,
2009-06-27, 02:07:04,VALID,1003.66,VALID,0,VALID,88.64,VALID,0,VALID,25.0644,VALID,337,VALID,0.753906,
2009-06-27, 02:08:04,VALID,1003.65,VALID,0,VALID,88.6552,VALID,0,VALID,25.0858,VALID,339,VALID,0.878125,
2009-06-27, 02:09:04,VALID,1003.69,VALID,0,VALID,88.6171,VALID,0,VALID,25.0839,VALID,346,VALID,0.833203,
2009-06-27, 02:10:04,VALID,1003.65,VALID,0,VALID,88.6247,VALID,0,VALID,25.0644,VALID,342,VALID,0.796484,
2009-06-27, 02:11:04,VALID,1003.68,VALID,0,VALID,88.6552,VALID,0,VALID,25.045,VALID,336,VALID,1.04727,
2009-06-27, 02:12:04,VALID,1003.69,VALID,0,VALID,88.5942,VALID,0.100563,VALID,25.0644,VALID,344,VALID,0.754297,
2009-06-27, 02:13:04,VALID,1003.69,VALID,0,VALID,88.5637,VALID,0.100563,VALID,25.0644,VALID,359,VALID,0.633984,
2009-06-27, 02:14:04,VALID,1003.67,VALID,0,VALID,88.5866,VALID,0,VALID,25.0644,VALID,351,VALID,0.599219,
2009-06-27, 02:15:04,VALID,1003.67,VALID,0,VALID,88.5713,VALID,0,VALID,25.0644,VALID,332,VALID,0.70625,
2009-06-27, 02:16:04,VALID,1003.68,VALID,0,VALID,88.5942,VALID,0,VALID,25.0839,VALID,360,VALID,0.580859,
2009-06-27, 02:17:04,VALID,1003.67,VALID,0,VALID,88.6094,VALID,0,VALID,25.0644,VALID,351,VALID,0.370703,
2009-06-27, 02:18:04,VALID,1003.65,VALID,0,VALID,88.5942,VALID,0.100563,VALID,25.0644,VALID,350,VALID,0.663281,
2009-06-27, 02:19:04,VALID,1003.65,VALID,0,VALID,88.5484,VALID,0,VALID,25.0644,VALID,333,VALID,0.579687,
2009-06-27, 02:20:04,VALID,1003.65,VALID,0,VALID,88.5179,VALID,0,VALID,25.0644,VALID,346,VALID,0.878906,
2009-06-27, 02:21:04,VALID,1003.69,VALID,0,VALID,88.4874,VALID,0,VALID,25.0839,VALID,347,VALID,0.385156,
2009-06-27, 02:22:04,VALID,1003.65,VALID,0,VALID,88.4645,VALID,0,VALID,25.0644,VALID,342,VALID,0.739453,
2009-06-27, 02:23:04,VALID,1003.64,VALID,0,VALID,88.5103,VALID,0.100563,VALID,25.045,VALID,334,VALID,0.538281,
2009-06-27, 02:24:04,VALID,1003.63,VALID,0,VALID,88.556,VALID,0,VALID,25.0255,VALID,5,VALID,0.732422,
2009-06-27, 02:25:04,VALID,1003.61,VALID,0,VALID,88.5255,VALID,0,VALID,25.045,VALID,5,VALID,0.451562,
2009-06-27, 02:26:04,VALID,1003.6,VALID,0,VALID,88.5866,VALID,0,VALID,25.006,VALID,1,VALID,0.517578,
2009-06-27, 02:27:04,VALID,1003.61,VALID,0,VALID,88.6705,VALID,0.100563,VALID,24.9671,VALID,340,VALID,0.614453,
2009-06-27, 02:28:04,VALID,1003.61,VALID,0,VALID,88.7086,VALID,0,VALID,24.9885,VALID,346,VALID,0.666406,
2009-06-27, 02:29:04,VALID,1003.63,VALID,0,VALID,88.6857,VALID,0.100563,VALID,24.9671,VALID,354,VALID,0.570313,
2009-06-27, 02:30:04,VALID,1003.64,VALID,0,VALID,88.7162,VALID,0.100563,VALID,24.9476,VALID,340,VALID,0.548437,
2009-06-27, 02:31:04,VALID,1003.64,VALID,0,VALID,88.7315,VALID,0.100563,VALID,24.9068,VALID,333,VALID,0.427344,
2009-06-27, 02:32:04,VALID,1003.63,VALID,0,VALID,88.7468,VALID,0,VALID,24.9282,VALID,347,VALID,0.703516,
2009-06-27, 02:33:04,VALID,1003.63,VALID,0,VALID,88.7697,VALID,0,VALID,24.9282,VALID,346,VALID,0.633203,
2009-06-27, 02:34:04,VALID,1003.63,VALID,0,VALID,88.7925,VALID,0,VALID,24.9282,VALID,346,VALID,0.699219,
2009-06-27, 02:35:04,VALID,1003.63,VALID,0,VALID,88.7773,VALID,0,VALID,24.93,VALID,350,VALID,0.363281,
2009-06-27, 02:36:04,VALID,1003.64,VALID,0,VALID,88.7162,VALID,0,VALID,24.93,VALID,350,VALID,0.104297,
2009-06-27, 02:37:04,VALID,1003.68,VALID,0,VALID,88.7697,VALID,0.100563,VALID,24.8697,VALID,350,VALID,0.255469,
2009-06-27, 02:38:04,VALID,1003.69,VALID,0,VALID,88.8612,VALID,0.100563,VALID,24.8911,VALID,350,VALID,0.330469,
2009-06-27, 02:39:04,VALID,1003.7,VALID,0,VALID,88.8765,VALID,0,VALID,24.8289,VALID,348,VALID,0.484766,
2009-06-27, 02:40:04,VALID,1003.73,VALID,0,VALID,88.907,VALID,0.100563,VALID,24.8503,VALID,355,VALID,0.373828,
2009-06-27, 02:41:04,VALID,1003.75,VALID,0,VALID,88.9299,VALID,0.100563,VALID,24.8697,VALID,354,VALID,0.483203,
2009-06-27, 02:42:04,VALID,1003.72,VALID,0,VALID,88.9604,VALID,0.100563,VALID,24.8697,VALID,337,VALID,0.513672,
2009-06-27, 02:43:04,VALID,1003.74,VALID,0,VALID,88.9985,VALID,0.100563,VALID,24.8697,VALID,329,VALID,0.508594,
2009-06-27, 02:44:04,VALID,1003.72,VALID,0,VALID,88.9756,VALID,0.100563,VALID,24.8697,VALID,333,VALID,0.457812,
2009-06-27, 02:45:04,VALID,1003.74,VALID,0,VALID,89.0214,VALID,0.100563,VALID,24.8697,VALID,333,VALID,0.289063,
2009-06-27, 02:46:04,VALID,1003.76,VALID,0,VALID,89.0519,VALID,0,VALID,24.8716,VALID,333,VALID,0.38125,
2009-06-27, 02:47:04,VALID,1003.72,VALID,0,VALID,89.0138,VALID,0,VALID,24.8503,VALID,335,VALID,0.541016,
2009-06-27, 02:48:04,VALID,1003.74,VALID,0,VALID,88.9909,VALID,0.100563,VALID,24.8716,VALID,356,VALID,0.282422,
2009-06-27, 02:49:04,VALID,1003.72,VALID,0,VALID,88.9909,VALID,0,VALID,24.8911,VALID,353,VALID,0.693359,
2009-06-27, 02:50:04,VALID,1003.72,VALID,0,VALID,88.8917,VALID,0,VALID,24.9106,VALID,341,VALID,0.196875,
2009-06-27, 02:51:04,VALID,1003.73,VALID,0,VALID,88.8536,VALID,0,VALID,24.9087,VALID,342,VALID,0.226563,
2009-06-27, 02:52:04,VALID,1003.74,VALID,0,VALID,88.8536,VALID,0.100563,VALID,24.9087,VALID,360,VALID,0.821875,
2009-06-27, 02:53:04,VALID,1003.76,VALID,0,VALID,88.8231,VALID,0,VALID,24.9476,VALID,355,VALID,0.808594,
2009-06-27, 02:54:04,VALID,1003.78,VALID,0,VALID,88.7697,VALID,0.100563,VALID,24.9671,VALID,293,VALID,0.544141,
2009-06-27, 02:55:04,VALID,1003.8,VALID,0,VALID,88.6018,VALID,0,VALID,25.006,VALID,335,VALID,0.848828,
2009-06-27, 02:56:04,VALID,1003.79,VALID,0,VALID,88.3958,VALID,0,VALID,25.0255,VALID,342,VALID,0.537109,
2009-06-27, 02:57:04,VALID,1003.84,VALID,0,VALID,88.3119,VALID,0,VALID,25.0644,VALID,351,VALID,0.427344,
2009-06-27, 02:58:04,VALID,1003.83,VALID,0,VALID,88.3348,VALID,0,VALID,25.0625,VALID,340,VALID,1.16562,
2009-06-27, 02:59:04,VALID,1003.83,VALID,0,VALID,88.4492,VALID,0,VALID,25.1034,VALID,360,VALID,1.01133,
2009-06-27, 03:00:04,VALID,1003.84,VALID,0,VALID,88.2738,VALID,0,VALID,25.1229,VALID,355,VALID,0.834375,
2009-06-27, 03:01:04,VALID,1003.82,VALID,0,VALID,88.2433,VALID,0,VALID,25.1034,VALID,344,VALID,0.540234,
2009-06-27, 03:02:04,VALID,1003.81,VALID,0,VALID,88.4492,VALID,0.100563,VALID,25.0839,VALID,340,VALID,0.766406,
2009-06-27, 03:03:04,VALID,1003.82,VALID,0,VALID,88.701,VALID,0.100563,VALID,25.0644,VALID,324,VALID,0.833984,
2009-06-27, 03:04:04,VALID,1003.77,VALID,0,VALID,88.8765,VALID,0,VALID,25.0644,VALID,357,VALID,0.675,
2009-06-27, 03:05:04,VALID,1003.76,VALID,0,VALID,89.2274,VALID,0.100563,VALID,25.0858,VALID,346,VALID,1.13516,
2009-06-27, 03:06:04,VALID,1003.73,VALID,0,VALID,89.174,VALID,0,VALID,25.1034,VALID,356,VALID,0.697656,
2009-06-27, 03:07:04,VALID,1003.71,VALID,0,VALID,89.2045,VALID,0.100563,VALID,25.0839,VALID,328,VALID,0.467578,
2009-06-27, 03:08:04,VALID,1003.73,VALID,0,VALID,89.2884,VALID,0,VALID,25.1034,VALID,357,VALID,0.692969,
2009-06-27, 03:09:04,VALID,1003.7,VALID,0,VALID,89.4028,VALID,0,VALID,25.1034,VALID,356,VALID,0.983203,
2009-06-27, 03:10:04,VALID,1003.69,VALID,0,VALID,89.441,VALID,0.100563,VALID,25.1248,VALID,354,VALID,0.789063,
2009-06-27, 03:11:04,VALID,1003.68,VALID,0,VALID,89.4868,VALID,0.100563,VALID,25.1034,VALID,339,VALID,0.769531,
2009-06-27, 03:12:04,VALID,1003.65,VALID,0,VALID,89.5859,VALID,0.100563,VALID,25.1034,VALID,336,VALID,0.957422,
2009-06-27, 03:13:04,VALID,1003.64,VALID,0,VALID,89.5783,VALID,0.100563,VALID,25.1034,VALID,348,VALID,0.678125,
2009-06-27, 03:14:04,VALID,1003.64,VALID,0,VALID,89.647,VALID,0,VALID,25.1248,VALID,359,VALID,0.816016,
2009-06-27, 03:15:04,VALID,1003.68,VALID,0,VALID,89.7385,VALID,0,VALID,25.1053,VALID,359,VALID,0.888672,
2009-06-27, 03:16:04,VALID,1003.65,VALID,0,VALID,89.8301,VALID,0.100563,VALID,25.1034,VALID,347,VALID,1.04141,
2009-06-27, 03:17:04,VALID,1003.65,VALID,0,VALID,89.914,VALID,0,VALID,25.0839,VALID,335,VALID,1.075,
2009-06-27, 03:18:04,VALID,1003.67,VALID,0,VALID,89.9064,VALID,0.100563,VALID,25.1229,VALID,14,VALID,0.959375,
2009-06-27, 03:19:04,VALID,1003.65,VALID,0,VALID,89.8758,VALID,0.100563,VALID,25.1229,VALID,354,VALID,1.23945,
2009-06-27, 03:20:04,VALID,1003.66,VALID,0,VALID,89.8987,VALID,0,VALID,25.1034,VALID,344,VALID,0.938281,
2009-06-27, 03:21:04,VALID,1003.6,VALID,0,VALID,89.8758,VALID,0.100563,VALID,25.0839,VALID,1,VALID,0.749219,
2009-06-27, 03:22:04,VALID,1003.65,VALID,0,VALID,89.8682,VALID,0,VALID,25.0644,VALID,356,VALID,0.275,
2009-06-27, 03:23:04,VALID,1003.66,VALID,0,VALID,89.7538,VALID,0.100563,VALID,25.0644,VALID,5,VALID,0.557031,
2009-06-27, 03:24:04,VALID,1003.66,VALID,0,VALID,89.6241,VALID,0.100563,VALID,25.0644,VALID,333,VALID,0.642187,
2009-06-27, 03:25:04,VALID,1003.66,VALID,0,VALID,89.2808,VALID,0.100563,VALID,25.045,VALID,347,VALID,0.767187,
2009-06-27, 03:26:04,VALID,1003.69,VALID,0,VALID,89.0214,VALID,0,VALID,25.0255,VALID,7,VALID,0.211719,
2009-06-27, 03:27:04,VALID,1003.67,VALID,0,VALID,88.9375,VALID,0,VALID,25.0469,VALID,340,VALID,0.376172,
2009-06-27, 03:28:04,VALID,1003.69,VALID,0,VALID,88.495,VALID,0,VALID,25.0663,VALID,354,VALID,1.21133,
2009-06-27, 03:29:04,VALID,1003.7,VALID,0,VALID,88.2661,VALID,0,VALID,25.0469,VALID,349,VALID,1.07383,
2009-06-27, 03:30:04,VALID,1003.69,VALID,0,VALID,88.2127,VALID,0,VALID,25.045,VALID,329,VALID,0.505859,
2009-06-27, 03:31:04,VALID,1003.71,VALID,0,VALID,88.2509,VALID,0,VALID,25.0255,VALID,354,VALID,0.820703,
2009-06-27, 03:32:04,VALID,1003.74,VALID,0,VALID,88.1593,VALID,0,VALID,25.0469,VALID,351,VALID,0.919141,
2009-06-27, 03:33:04,VALID,1003.77,VALID,0,VALID,88.0907,VALID,0,VALID,25.006,VALID,357,VALID,0.85625,
2009-06-27, 03:34:04,VALID,1003.74,VALID,0,VALID,87.9228,VALID,0,VALID,25.0274,VALID,355,VALID,0.950781,
2009-06-27, 03:35:04,VALID,1003.76,VALID,0,VALID,87.5719,VALID,0,VALID,25.006,VALID,358,VALID,1.04492,
2009-06-27, 03:36:04,VALID,1003.73,VALID,0,VALID,87.4651,VALID,0,VALID,25.0274,VALID,351,VALID,0.76875,
2009-06-27, 03:37:04,VALID,1003.71,VALID,0,VALID,87.2744,VALID,0,VALID,24.9866,VALID,349,VALID,1.07461,
2009-06-27, 03:38:04,VALID,1003.69,VALID,0,VALID,87.1447,VALID,0,VALID,24.9866,VALID,6,VALID,0.818359,
2009-06-27, 03:39:04,VALID,1003.68,VALID,0,VALID,86.9845,VALID,0,VALID,25.006,VALID,348,VALID,0.860156,
2009-06-27, 03:40:04,VALID,1003.68,VALID,0,VALID,86.8548,VALID,0,VALID,25.006,VALID,353,VALID,0.684766,
2009-06-27, 03:41:04,VALID,1003.69,VALID,0,VALID,86.7633,VALID,0,VALID,25.006,VALID,349,VALID,0.589453,
2009-06-27, 03:42:04,VALID,1003.68,VALID,0,VALID,86.6031,VALID,0.100563,VALID,25.006,VALID,356,VALID,0.853516,